This demonstration page uses our WeatherBlox Daily Observations layout. Learn more.

Left ArrowRight Arrow

Hourly Observations for December 1, 2018

Temp ( °F °C ) Dew Point ( °F °C ) Humidity (%) Winds ( mph kmh ) Pressure ( in mb ) Visibility ( mi km ) Precip ( " mm )
12:53 am 00:53 Clear 53 11.7 32 0 45 45 W 16 26 29.66 1004 10 16 0.00 0.00
1:53 am 01:53 Clear 51 10.6 31 -0.6 46 46 W 14 22 29.66 1005 10 16 0.00 0.00
2:53 am 02:53 Clear 50 10 30 -1.1 46 46 WSW 16 26 29.68 1005 10 16 0.00 0.00
3:53 am 03:53 Clear 49 9.4 30 -1.1 48 48 W 15 24 29.70 1006 10 16 0.00 0.00
4:53 am 04:53 Clear 48 8.9 30 -1.1 50 50 W 12 19 29.71 1006 10 16 0.00 0.00
5:53 am 05:53 Clear 47 8.3 30 -1.1 52 52 WSW 13 20 29.71 1006 10 16 0.00 0.00
6:53 am 06:53 Clear 46 7.8 30 -1.1 54 54 WSW 13 20 29.73 1007 10 16 0.00 0.00
7:53 am 07:53 Sunny 47 8.3 30 -1.1 52 52 W 13 20 29.74 1007 10 16 0.00 0.00
8:53 am 08:53 Sunny 52 11.1 29 -1.7 41 41 W 16 26 29.75 1007 10 16 0.00 0.00
9:53 am 09:53 Sunny 57 13.9 30 -1.1 36 36 W 20 31 29.75 1007 10 16 0.00 0.00
10:53 am 10:53 Sunny 61 16.1 30 -1.1 31 31 WSW 18 30 29.73 1007 10 16 0.00 0.00
12:53 pm 12:53 Sunny 65 18.3 27 -2.8 24 24 W 17 28 29.67 1005 10 16 0.00 0.00
1:53 pm 13:53 Sunny 66 18.9 26 -3.3 22 22 WSW 21 33 29.63 1004 10 16 0.00 0.00
2:53 pm 14:53 Sunny 67 19.4 24 -4.4 20 20 W 24 39 29.61 1003 10 16 0.00 0.00
3:53 pm 15:53 Sunny 67 19.4 23 -5 19 19 WSW 23 37 29.61 1003 10 16 0.00 0.00
4:53 pm 16:53 Sunny 65 18.3 23 -5 20 20 W 23 37 29.62 1003 10 16 0.00 0.00
5:53 pm 17:53 Clear 61 16.1 23 -5 23 23 W 20 31 29.64 1004 10 16 0.00 0.00
6:53 pm 18:53 Clear 58 14.4 26 -3.3 29 29 W 16 26 29.67 1005 10 16 0.00 0.00
7:53 pm 19:53 Clear 55 12.8 28 -2.2 35 35 W 10 17 29.70 1006 10 16 0.00 0.00
8:53 pm 20:53 Clear 53 11.7 29 -1.7 40 40 W 12 19 29.71 1006 10 16 0.00 0.00
9:53 pm 21:53 Clear 47 8.3 28 -2.2 48 48 WSW 6 9 29.72 1007 10 16 0.00 0.00
10:53 pm 22:53 Clear 48 8.9 29 -1.7 48 48 WNW 9 15 29.72 1006 10 16 0.00 0.00
11:53 pm 23:53 Clear 43 6.1 29 -1.7 58 58 SSW 7 11 29.74 1007 10 16 0.00 0.00

Powered by AerisWeather